Find Starlink 34660

NORAD ID: 64800 Int'l Des: 2025-150 Owner: SPXS Country: US Constellation: starlink operational
LEOCIRCULAR

現在のビュー

3D地球を読み込み中...

About Starlink 34660

Starlink 34660 (NORAD 64800) is a starlink constellation satellite (v2 mini) launched Jul 16, 2025 by SPXS of US. It operates in LEO, CIRCULAR orbit with a mass of 575.00 kg.

次回通過

Passes for default location (London). Set your location on the main map for personalized predictions.

高度履歴

Loading altitude history...

軌道要素

1 64800U 25150L 26263.99752785 .00001813 00000-0 15969-3 0 9998
2 64800 70.0026 1.9513 0003549 269.6879 90.3873 14.98333399 65779
Epoch: Sep 20, 2026 • Age: 11 hours

現在のステータス

高度 591.5 km
遠地点 / 近地点 N/A
速度 7.56 km/s
衛星直下点 -57.39°S, 162.91°E
打ち上げ日 Jul 16, 2025
運用期間 1.1 years
タイプ internet

技術仕様

分類 Payload
質量 575.00 kg
乾燥質量 530.00 kg
長さ 0.30 m
スパン 29.00 m
形状 ? Box + pan
製造者 SPXS
バスタイプ Starlink V2MO
フェーズステータス In Orbit
所有者/国 SPXS/US

Most Searched